Theta_e
278 273 269 270 272 274 274 273 272 273 277 275 275 276 279 281 280 278 276 277 278 279 281 283 283 283 284 284 284 285 285 285 285 285 284 284 283 285 286 287 288 289 288 290
273 269 273 277 276 275 274 272 270 273 277 274 274 274 277 280 280 280 279 278 278 278 279 281 282 282 282 282 283 284 284 285 285 285 285 285 284 285 286 286 287 287 288 288
272 273 277 276 273 274 271 270 269 271 274 275 271 272 275 279 281 281 281 280 279 278 278 278 279 280 280 280 281 283 283 284 284 284 285 284 285 284 284 284 285 286 287 287
271 274 275 273 272 273 272 273 273 273 271 269 272 268 273 276 278 280 281 278 277 278 278 279 279 280 279 280 281 282 283 283 284 284 283 282 281 280 282 283 284 285 287 286
270 271 272 272 273 274 272 274 273 273 270 269 269 267 271 276 275 278 279 278 277 278 279 278 278 281 280 281 280 281 281 282 283 282 282 282 281 282 283 283 283 284 285 286
271 275 273 272 274 274 275 273 273 272 271 263 270 269 267 272 277 277 278 277 278 278 278 279 280 281 280 280 280 280 280 280 281 281 281 281 280 280 280 281 281 282 283 284
272 271 272 275 272 273 272 271 265 264 260 264 270 268 270 276 277 278 277 277 277 278 278 278 278 279 279 278 279 280 279 279 279 279 279 280 280 280 280 280 280 280 281 282
268 267 271 273 271 271 271 270 267 260 265 267 271 267 271 276 278 279 278 278 278 278 278 278 279 279 279 279 278 278 278 277 278 278 277 278 278 279 279 279 280 280 280 280
266 268 272 274 273 272 269 267 270 261 263 261 267 270 275 278 276 276 277 277 277 277 278 279 279 279 279 279 279 278 277 277 277 277 277 276 277 277 276 277 278 278 278 279
270 264 272 272 273 272 270 272 266 264 256 257 268 266 269 274 275 276 276 276 277 278 278 278 278 279 279 279 279 279 278 277 277 277 276 276 276 276 276 276 276 277 277 277
264 268 269 271 266 268 267 266 267 268 265 261 261 265 270 274 277 276 277 278 278 277 277 278 278 279 279 279 279 278 277 276 276 277 276 276 276 276 276 276 276 276 277 276
271 266 261 266 269 271 269 267 267 262 262 263 264 264 276 275 276 277 277 279 277 277 277 277 277 277 278 279 279 278 278 276 276 276 276 276 276 275 275 275 275 275 275 276
267 263 258 265 266 268 262 270 272 268 267 262 259 265 275 274 274 275 275 275 276 277 277 277 276 276 277 277 278 278 278 277 276 275 275 275 275 274 274 274 275 275 274 274
275 259 261 263 265 263 259 262 270 263 257 263 267 268 271 271 273 274 274 276 276 276 276 276 275 276 277 278 277 277 278 277 276 275 274 274 274 274 273 274 274 274 274 273
268 258 258 261 267 265 263 260 266 264 267 264 271 270 270 269 271 274 274 275 275 276 276 276 276 276 276 277 277 277 278 277 275 274 274 273 274 274 273 274 273 273 273 273
265 258 257 257 268 268 264 265 265 269 269 269 270 269 274 275 275 273 275 274 275 275 275 276 277 277 277 278 277 278 277 276 275 274 274 274 274 273 273 273 272 272 272 272
264 259 255 255 267 265 261 264 266 268 262 269 265 271 272 272 274 274 274 275 275 276 276 276 276 277 277 276 278 276 276 274 273 273 274 274 273 272 272 272 271 271 270 270
261 258 255 253 256 254 267 270 267 269 271 270 269 270 270 271 272 274 275 275 276 277 277 277 276 276 276 276 276 276 278 276 275 274 273 273 272 271 271 270 269 269 269 268
268 261 255 255 248 262 269 267 265 263 265 271 271 273 271 269 268 270 276 276 276 276 276 276 275 274 275 276 276 276 276 276 274 273 273 271 270 269 269 268 267 267 267 265
271 267 261 253 251 253 264 267 268 267 262 267 272 272 271 270 264 267 272 275 276 276 276 276 276 276 276 276 276 276 275 273 271 272 271 269 268 268 267 266 266 267 264 265
264 263 263 257 253 259 267 270 269 261 266 269 272 271 271 270 271 271 273 274 276 277 277 277 276 276 276 277 276 275 273 271 272 269 268 268 267 267 266 266 266 265 263 263
263 261 260 260 256 257 271 271 268 272 270 272 271 273 273 272 273 273 274 275 276 275 276 276 276 276 276 275 275 272 271 270 266 266 265 265 264 265 266 265 264 263 262 262
262 268 263 264 264 268 273 273 275 273 271 272 272 274 274 273 273 274 274 274 274 274 276 276 275 274 269 265 269 270 269 266 264 262 260 259 261 264 265 263 261 261 261 259
267 269 265 267 268 271 273 275 274 274 273 275 276 275 274 273 274 274 275 275 275 275 274 274 273 272 271 267 270 268 266 263 259 258 258 258 258 260 260 263 263 262 260 258
269 269 264 265 270 273 272 274 276 277 276 276 276 275 275 274 275 275 275 276 276 275 274 272 273 273 272 267 264 262 262 260 259 257 256 257 259 259 260 262 262 263 263 264
271 266 267 269 271 273 274 273 273 274 273 271 272 273 273 273 272 272 272 273 273 273 273 271 271 270 268 266 265 263 261 261 259 260 260 260 260 259 260 260 260 265 267 269
Wind_Speed
6 9 4 2 1 0 3 5 6 3 1 2 3 5 8 8 5 5 2 3 5 6 3 5 5 5 6 6 7 9 11 12 11 11 11 11 12 10 10 10 14 15 15 16
8 5 2 4 1 6 6 7 2 1 3 1 1 7 7 9 6 7 6 5 5 4 4 5 5 6 6 6 7 8 10 9 9 8 8 7 8 6 8 10 11 14 15 15
6 5 2 3 5 5 5 5 1 1 3 3 1 5 5 6 6 8 6 6 5 5 4 4 5 5 5 6 6 7 7 8 8 10 7 7 6 6 9 11 11 13 14 15
7 2 2 5 4 1 4 1 1 1 3 1 3 5 5 7 8 7 8 6 6 5 3 2 4 5 4 5 5 6 6 5 8 7 8 10 8 9 9 9 11 11 15 15
2 2 2 5 2 1 4 2 3 2 2 3 3 4 9 9 8 11 9 8 7 7 5 3 3 3 3 4 5 6 6 6 6 7 7 6 8 7 7 9 13 13 13 15
3 1 3 2 1 2 4 4 3 3 3 3 5 5 6 8 13 5 7 8 8 7 5 5 4 3 0 2 3 4 5 5 6 6 7 7 9 9 9 11 10 10 10 11
1 2 1 1 4 1 4 4 4 5 5 5 2 1 11 8 5 10 14 10 8 7 6 5 4 3 3 2 2 3 4 5 5 5 6 6 6 6 9 10 9 12 10 11
6 4 1 2 2 6 3 6 6 8 4 2 2 8 9 5 5 8 8 9 7 6 6 6 6 6 5 4 2 3 4 4 4 5 6 5 6 4 4 7 7 7 8 10
5 1 1 4 2 2 2 1 4 8 3 5 5 8 6 4 4 5 7 6 8 7 7 6 6 6 7 5 5 5 5 4 4 4 4 5 5 6 5 7 6 7 8 10
4 5 1 0 2 2 4 4 4 3 3 4 5 6 8 7 10 8 9 9 8 8 7 6 7 7 6 7 6 5 5 5 4 3 3 4 5 5 5 5 7 9 9 11
3 5 1 4 5 6 1 0 2 3 5 6 2 9 7 8 12 13 10 10 10 8 8 8 7 7 7 6 7 7 6 5 5 4 4 5 5 5 5 5 6 8 10 11
4 5 4 6 1 2 3 6 5 7 6 3 3 11 4 4 6 8 8 9 7 9 9 7 7 7 6 7 7 8 7 6 6 5 4 4 5 5 5 6 7 6 9 10
5 2 4 5 5 5 2 5 3 4 3 6 7 9 1 3 5 6 8 5 5 6 8 7 5 7 6 7 7 8 7 7 6 5 4 5 5 5 5 6 6 7 8 8
4 3 7 8 6 5 2 3 5 7 5 4 12 4 6 6 7 5 3 6 8 8 8 6 5 6 6 7 7 8 8 7 6 6 5 5 5 5 5 5 6 7 7 7
5 4 1 4 4 3 7 6 9 11 13 11 8 15 8 6 10 8 5 6 6 6 7 6 4 5 6 7 7 7 7 7 6 6 5 6 5 4 4 5 7 8 8 9
4 1 3 5 3 7 8 10 12 20 20 21 21 33 12 13 9 8 7 3 5 7 7 7 6 6 7 7 8 8 7 7 7 7 6 5 5 4 4 5 7 8 9 9
5 6 4 6 6 7 11 16 22 9 6 22 16 19 4 8 4 5 5 6 7 8 8 8 8 7 6 7 8 7 7 3 6 6 5 5 4 3 3 5 7 8 10 10
7 6 4 4 5 3 7 5 8 20 15 18 10 10 5 5 4 4 7 8 9 9 8 8 7 6 7 7 6 5 6 6 7 6 6 5 4 2 3 5 6 8 8 9
5 5 1 4 4 11 9 4 7 9 11 19 22 19 8 1 4 7 6 6 9 8 8 8 7 6 6 8 8 6 7 6 6 7 6 5 4 2 3 5 6 6 7 8
5 4 6 3 5 9 7 3 4 4 8 6 16 12 7 6 0 6 5 4 6 8 6 8 9 6 7 8 6 5 7 5 7 6 5 5 4 2 3 5 6 5 4 9
4 2 13 5 5 13 12 5 3 7 11 3 8 6 7 5 7 6 3 5 7 8 9 9 8 9 9 7 4 6 5 7 6 4 5 4 3 1 3 4 4 5 5 7
11 12 7 5 4 15 8 5 8 8 2 5 4 6 7 7 5 6 8 8 8 9 9 10 9 9 8 5 4 5 6 3 4 5 4 3 1 3 4 5 5 5 5 6
6 12 11 16 13 6 14 5 11 2 5 5 5 6 7 7 8 9 9 9 9 9 9 7 8 8 6 5 5 5 4 5 5 4 3 2 2 3 4 4 5 4 3 4
8 6 4 4 7 13 12 15 3 4 7 6 6 8 6 9 9 8 8 8 8 7 8 7 8 8 9 6 5 5 6 5 5 4 2 1 2 3 3 3 4 4 3 3
6 8 6 7 8 9 6 9 12 11 10 9 8 8 9 7 8 7 7 8 8 8 6 5 9 9 9 6 6 5 6 6 4 3 2 3 3 3 3 3 3 5 4 6
7 9 7 12 7 9 5 5 5 1 3 8 7 6 8 7 8 9 10 10 10 11 10 7 9 7 6 6 6 6 6 5 4 3 2 2 1 2 2 2 5 10 13 15
Wind_Direction
30 67 93 111 344 44 96 94 112 125 228 40 191 177 195 184 157 140 143 93 84 85 57 63 59 38 33 14 8 9 7 4 5 1 358 357 355 349 352 354 350 351 347 349
30 100 217 301 328 69 46 112 56 63 165 167 237 259 233 186 184 174 189 147 118 87 50 34 42 28 32 18 7 10 11 8 12 5 356 352 344 347 345 347 349 350 348 349
113 168 232 111 51 82 42 101 101 200 318 226 312 287 194 204 169 189 194 151 127 111 72 42 34 26 29 23 14 10 2 2 11 5 359 354 350 352 355 355 348 349 350 349
92 253 192 103 87 327 111 321 129 38 45 188 109 262 248 192 197 196 199 162 145 132 111 82 51 21 23 16 12 5 3 358 13 1 6 6 3 357 348 344 343 346 349 351
217 110 51 76 127 2 151 153 113 51 50 38 222 100 266 155 214 217 203 186 166 157 153 137 101 55 43 22 7 359 3 359 358 2 4 2 2 349 340 344 346 350 348 351
107 330 56 109 141 74 130 109 70 52 64 19 218 153 262 186 211 181 172 180 168 167 178 159 149 105 342 27 359 342 357 347 355 0 355 356 357 346 346 351 351 349 347 348
32 39 59 64 88 34 61 84 23 5 9 222 69 58 245 224 200 170 170 174 166 179 178 195 202 220 235 256 298 308 344 331 346 0 355 345 343 342 345 345 343 342 344 346
149 302 72 20 96 163 129 148 155 192 199 234 334 236 258 224 107 115 137 154 171 200 195 194 224 220 223 230 249 286 302 312 332 344 342 337 334 329 333 335 330 332 334 336
122 119 51 49 41 82 235 184 172 99 52 52 225 288 318 75 108 132 160 174 208 221 205 215 240 222 218 220 230 243 270 285 302 316 330 327 324 328 325 324 324 328 326 327
190 86 10 181 76 43 139 188 84 359 118 260 275 275 239 210 211 201 203 209 224 227 226 221 229 227 219 211 221 233 237 254 268 293 305 321 313 316 319 317 321 325 325 328
132 101 176 53 203 177 112 135 35 116 149 176 243 257 217 213 200 200 207 208 218 221 216 234 248 243 226 217 218 230 231 245 267 277 289 306 303 311 320 312 311 318 324 330
209 130 150 221 141 36 163 197 157 129 239 233 148 270 268 175 187 177 203 215 212 203 223 236 242 244 242 234 237 227 228 227 238 253 281 297 303 315 315 310 310 309 315 324
220 308 51 340 351 356 186 207 184 127 100 215 146 255 196 139 140 162 167 188 224 242 255 249 235 235 241 244 239 232 227 227 224 226 255 291 296 304 305 309 306 314 313 311
98 90 165 188 193 128 192 250 196 132 133 205 229 244 254 211 202 180 175 241 243 250 241 228 248 259 261 259 247 241 236 221 217 214 231 266 276 289 296 300 310 314 313 311
104 180 131 267 233 185 205 189 200 204 207 193 238 237 214 213 216 230 252 248 256 249 238 231 237 258 270 276 270 253 239 224 205 212 227 250 266 277 296 306 312 315 319 323
6 235 87 305 282 225 254 216 219 228 232 251 261 275 263 262 254 267 267 275 278 263 254 241 247 256 271 271 271 262 236 229 192 210 226 237 255 275 293 308 316 317 321 323
133 127 87 266 339 318 288 210 206 210 207 222 232 245 247 276 247 220 241 249 261 253 242 243 242 249 258 265 270 252 238 202 206 210 220 228 228 255 291 304 311 317 319 319
135 114 106 230 13 283 253 179 175 213 238 221 254 243 188 191 208 248 244 241 256 250 246 246 245 255 266 263 248 253 255 227 218 218 223 211 194 236 292 299 300 308 312 317
139 116 102 154 200 302 288 170 156 164 267 220 225 242 226 273 54 292 256 237 235 244 247 238 235 238 259 259 256 255 262 237 224 226 213 187 183 223 265 289 299 296 301 312
160 87 129 98 169 227 237 236 144 124 287 233 202 227 198 132 181 250 248 227 229 238 237 250 254 253 251 258 257 259 262 245 237 222 193 163 166 211 251 271 290 294 289 298
148 210 215 203 235 281 247 193 123 92 245 199 164 175 164 178 204 214 217 243 235 238 251 258 252 238 242 249 235 252 254 249 238 158 155 159 156 217 268 284 298 299 289 293
172 171 190 158 196 272 160 87 188 216 291 159 157 178 189 213 242 250 250 256 258 260 263 262 263 254 242 225 213 246 256 231 151 148 152 145 129 302 299 296 293 287 289 300
234 195 180 188 207 224 195 202 223 184 172 201 174 216 203 224 234 240 250 248 245 247 260 248 245 246 242 217 185 237 248 159 151 136 155 180 266 281 284 276 270 284 283 298
246 170 216 128 229 229 209 238 256 221 241 241 220 231 214 230 247 241 251 252 253 250 245 243 244 240 246 208 207 210 162 152 150 166 190 239 260 282 264 270 280 289 284 289
180 134 183 272 280 286 249 223 241 251 256 247 240 239 242 236 261 254 269 275 276 272 268 245 249 245 236 183 193 174 157 150 160 167 207 251 242 252 261 270 262 280 266 272
169 181 197 243 198 213 209 56 11 99 24 38 23 358 360 10 326 329 306 304 302 299 300 282 252 239 218 183 174 169 163 167 162 208 216 218 236 265 289 296 301 305 304 306